Spokane Fairchild, WA
on Wednesday, January 9, 2013

Wednesday
Previous Day Next Day
Daily Summary
 ActualAverage (KGEG)Record (KGEG)
Temperature
Mean Temperature °F 29°F  
Max Temperature 41°F 33°F 52°F (1990)
Min Temperature 30°F 24°F -15°F (1909)
Degree Days
Heating Degree Days 30 36  
Month to date heating degree days 334  
Since 1 July heating degree days 3168  
Cooling Degree Days 0 0  
Month to date cooling degree days 0  
Year to date cooling degree days 0  
Moisture
Dew Point 37°F   
Average Humidity 100    
Maximum Humidity 100    
Minimum Humidity 93    
Precipitation
Precipitation 0.02 in 0.07 in 0.67 in (1953)
Month to date precipitation 0.58  
Year to date precipitation 0.58  
Snow
Snow 0.00 in 0.50 in 5.60 in (1969)
Month to date snowfall 4.2  
Since 1 July snowfall 26.3  
Snow Depth 6.00 in   
Wind
Wind Speed 17 mph   
Max Wind Speed 24 mph   
Max Gust Speed 32 mph   
Visibility 10 miles   
Events Snow   

Key: T is trace of precipitation, MM is missing value
Source: NWS Daily Summary
Time(PST)TemperatureDew PointHumidity Pressure Visibility Wind DirectionWind SpeedGust SpeedPrecipitationEvents Conditions
12:58 AM 40.1°F 40.1°F 100% 29.86 in 10.0 miles SSW 24.2 mph 32.2 mph 0.02 in   Overcast
1:58 AM 40.1°F 40.1°F 100% 29.86 in 10.0 miles South 18.4 mph - N/A   Overcast
2:58 AM 38.7°F 38.7°F 100% 29.85 in 10.0 miles South 16.1 mph 24.2 mph N/A   Mostly Cloudy
3:58 AM 38.1°F 37.9°F 99% 29.85 in 10.0 miles South 18.4 mph - N/A   Overcast
4:06 AM 39.2°F 39.2°F 100% 29.78 in 10.0 miles South 13.8 mph 25.3 mph N/A   Overcast
4:34 AM 37.4°F 37.4°F 100% 29.76 in 10.0 miles South 19.6 mph 23.0 mph N/A   Overcast
4:58 AM 38.7°F 38.7°F 100% 29.81 in 10.0 miles South 20.7 mph 26.5 mph 0.00 in   Mostly Cloudy
5:58 AM 37.4°F 37.4°F 100% 29.79 in 10.0 miles South 13.8 mph - N/A   Overcast
6:31 AM 37.4°F 37.4°F 100% 29.72 in 10.0 miles South 12.7 mph - N/A   Mostly Cloudy
6:40 AM 37.4°F 37.4°F 100% 29.72 in 10.0 miles South 12.7 mph - N/A   Mostly Cloudy
6:58 AM 37.9°F 37.8°F 99% 29.77 in 10.0 miles South 13.8 mph - 0.00 in   Overcast
7:13 AM 39.2°F 39.2°F 100% 29.71 in 10.0 miles South 15.0 mph - N/A   Overcast
7:41 AM 39.2°F 39.2°F 100% 29.71 in 10.0 miles South 16.1 mph - N/A   Mostly Cloudy
7:58 AM 38.8°F 38.8°F 100% 29.75 in 10.0 miles SSE 16.1 mph 23.0 mph 0.00 in   Overcast
7:59 AM 39.2°F 39.2°F 100% 29.70 in 10.0 miles SSE 17.3 mph - N/A   Mostly Cloudy
8:00 AM 39.2°F 39.2°F 100% 29.69 in 10.0 miles SSE 17.3 mph - N/A   Mostly Cloudy
8:01 AM 39.2°F 39.2°F 100% 29.69 in 10.0 miles SSE 16.1 mph - N/A   Overcast
8:30 AM 39.2°F 39.2°F 100% 29.67 in 10.0 miles SSE 13.8 mph - N/A   Scattered Clouds
8:41 AM 39.2°F 39.2°F 100% 29.67 in 10.0 miles SSE 15.0 mph - N/A   Partly Cloudy
8:44 AM 39.2°F 39.2°F 100% 29.66 in 10.0 miles SSE 12.7 mph - N/A   Clear
8:58 AM 38.7°F 38.7°F 100% 29.71 in 10.0 miles SSE 13.8 mph 20.7 mph 0.00 in   Partly Cloudy
9:01 AM 39.2°F 39.2°F 100% 29.65 in 10.0 miles SSE 15.0 mph - N/A   Partly Cloudy
9:12 AM 39.2°F 39.2°F 100% 29.65 in 10.0 miles SSE 15.0 mph 20.7 mph N/A   Partly Cloudy
9:58 AM 38.7°F 38.7°F 100% 29.68 in 10.0 miles SSE 16.1 mph 21.9 mph 0.00 in   Partly Cloudy
10:34 AM 39.2°F 39.2°F 100% 29.61 in 10.0 miles South 17.3 mph - N/A   Clear
10:58 AM 39.2°F 39.2°F 100% 29.65 in 10.0 miles South 17.3 mph - 0.00 in   Partly Cloudy
11:25 AM 39.2°F 39.2°F 100% 29.60 in 10.0 miles South 16.1 mph - N/A   Partly Cloudy
11:34 AM 39.2°F 39.2°F 100% 29.59 in 10.0 miles South 17.3 mph - N/A   Scattered Clouds
11:45 AM 39.2°F 39.2°F 100% 29.59 in 10.0 miles South 15.0 mph - N/A   Mostly Cloudy
11:58 AM 39.7°F 39.7°F 100% 29.63 in 10.0 miles South 11.5 mph - 0.00 in   Mostly Cloudy
12:01 PM 39.2°F 39.2°F 100% 29.59 in 10.0 miles South 12.7 mph 20.7 mph N/A   Mostly Cloudy
12:11 PM 39.2°F 39.2°F 100% 29.60 in 10.0 miles South 11.5 mph - N/A   Mostly Cloudy
12:28 PM 41.0°F 41.0°F 100% 29.59 in 10.0 miles South 10.4 mph - N/A   Overcast
12:56 PM 41.0°F 41.0°F 100% 29.59 in 10.0 miles South 16.1 mph - N/A   Overcast
12:59 PM 41.0°F 41.0°F 100% 29.63 in 10.0 miles South 15.0 mph - 0.00 in   Overcast
1:02 PM 41.0°F 41.0°F 100% 29.58 in 10.0 miles South 17.3 mph - N/A   Overcast
1:13 PM 41.0°F 41.0°F 100% 29.58 in 10.0 miles South 15.0 mph - N/A   Overcast
1:45 PM 39.2°F 39.2°F 100% 29.59 in 10.0 miles South 15.0 mph - N/A   Overcast
1:53 PM 41.0°F 39.2°F 93% 29.58 in 10.0 miles SSW 15.0 mph - N/A   Overcast
1:58 PM 40.8°F 38.8°F 93% 29.62 in 10.0 miles South 13.8 mph - 0.00 in   Overcast
2:58 PM 38.5°F 38.5°F 100% 29.66 in 10.0 miles SSW 19.6 mph 24.2 mph N/A   Overcast
3:13 PM 37.4°F 37.4°F 100% 29.61 in 10.0 miles SSW 20.7 mph 25.3 mph N/A Snow Light Snow
3:58 PM 37.4°F 37.4°F 100% 29.68 in 10.0 miles SSW 23.0 mph 31.1 mph 0.00 in Snow Light Snow
4:58 PM 36.0°F 36.0°F 100% 29.69 in 10.0 miles SSW 12.7 mph 23.0 mph 0.00 in Snow Light Snow
5:58 PM 35.1°F 35.1°F 100% 29.70 in 10.0 miles SSW 18.4 mph - 0.00 in Snow Light Snow
6:36 PM 33.8°F 33.8°F 100% 29.67 in 10.0 miles SSW 20.7 mph 26.5 mph N/A   Scattered Clouds
6:49 PM 33.8°F 33.8°F 100% 29.67 in 10.0 miles SSW 18.4 mph 26.5 mph N/A Snow Light Snow
6:52 PM 33.8°F 33.8°F 100% 29.67 in 10.0 miles SSW 18.4 mph 26.5 mph N/A   Mostly Cloudy
6:58 PM 34.2°F 34.2°F 100% 29.73 in 10.0 miles SSW 16.1 mph - 0.00 in   Mostly Cloudy
6:59 PM 33.8°F 33.8°F 100% 29.67 in 10.0 miles SSW 15.0 mph - N/A Snow Light Snow
7:00 PM 33.8°F 33.8°F 100% 29.67 in 10.0 miles SSW 16.1 mph - N/A   Mostly Cloudy
7:01 PM 33.8°F 33.8°F 100% 29.67 in 10.0 miles SSW 16.1 mph - N/A Snow Light Snow
7:19 PM 32.0°F 32.0°F 100% 29.68 in 10.0 miles SSW 16.1 mph - N/A   Mostly Cloudy
7:22 PM 32.0°F 32.0°F 100% 29.68 in 10.0 miles SSW 19.6 mph 25.3 mph N/A Snow Light Snow
7:32 PM 32.0°F 32.0°F 100% 29.68 in 10.0 miles SSW 16.1 mph 23.0 mph N/A   Mostly Cloudy
7:46 PM 32.0°F 32.0°F 100% 29.69 in 10.0 miles SSW 16.1 mph - N/A Snow Light Snow
7:53 PM 32.0°F 32.0°F 100% 29.69 in 10.0 miles SSW 13.8 mph - N/A   Overcast
7:58 PM 33.4°F 33.4°F 100% 29.76 in 10.0 miles SSW 16.1 mph - 0.00 in   Overcast
8:58 PM 32.0°F 31.8°F 99% 29.76 in 10.0 miles SSW 15.0 mph - N/A   Mostly Cloudy
9:58 PM 30.9°F 30.9°F 100% 29.78 in 10.0 miles SSW 12.7 mph - N/A   Partly Cloudy
10:05 PM 32.0°F 32.0°F 100% 29.72 in 10.0 miles South 13.8 mph - N/A   Scattered Clouds
10:31 PM 32.0°F 32.0°F 100% 29.73 in 10.0 miles South 9.2 mph - N/A   Clear
10:58 PM 30.4°F 30.4°F 100% 29.79 in 10.0 miles South 6.9 mph - 0.00 in   Clear
11:04 PM 32.0°F 32.0°F 100% 29.73 in 10.0 miles South 8.1 mph - N/A   Partly Cloudy
11:14 PM 32.0°F 32.0°F 100% 29.74 in 10.0 miles South 11.5 mph - N/A   Mostly Cloudy
11:21 PM 30.2°F 30.2°F 100% 29.74 in 10.0 miles South 12.7 mph - N/A   Mostly Cloudy
11:40 PM 30.2°F 30.2°F 100% 29.73 in 10.0 miles South 12.7 mph - N/A   Overcast
11:50 PM 30.2°F 30.2°F 100% 29.73 in 10.0 miles South 12.7 mph - N/A   Overcast
11:58 PM 30.4°F 30.4°F 100% 29.78 in 10.0 miles South 11.5 mph - 0.00 in   Overcast
Moon Phase
Jan. 09 Jan. 11 Jan. 18 Jan. 26 Feb. 03
Sunrise:07:37 AM (PST) Moon Rise:05:21 AM (PST)1/9
Sunset:04:19 PM (PST) Moon Set:02:25 PM (PST)1/9

Copyright © 2014 The Weather Underground, Inc.